owner,sensor,date,latitude,longitude,vertical_datum,wind_speed,wind_to_direction,wind_speed_of_gust,qcFlag 
TABS,ioos:station:wmo:42046:1,2011-07-01T00:00:00Z,27.8903,-94.0367,4.0,6.046436967,108.0158053,7.12,'11111222,11111222,11111222' 
TABS,ioos:station:wmo:42046:1,2011-07-01T00:30:00Z,27.8903,-94.0367,4.0,5.914220151,107.516224,7.28,'11111222,11111222,11111222' 
TABS,ioos:station:wmo:42046:1,2011-07-01T01:00:00Z,27.8903,-94.0367,4.0,6.386274344,112.2682646,7.18,'11111222,11111222,11111222' 
TABS,ioos:station:wmo:42046:1,2011-07-01T01:30:00Z,27.8903,-94.0367,4.0,6.442359816,114.9742734,7.53,'11111222,11111222,11111222' 
TABS,ioos:station:wmo:42046:1,2011-07-01T02:00:00Z,27.8903,-94.0367,4.0,6.269968102,119.6318883,7.69,'11111222,11111222,11111222' 
TABS,ioos:station:wmo:42046:1,2011-07-01T02:30:00Z,27.8903,-94.0367,4.0,6.210515277,127.6082997,7.37,'11111222,11111222,11111222' 
TABS,ioos:station:wmo:42046:1,2011-07-01T03:00:00Z,27.8903,-94.0367,4.0,6.086222145,126.3806988,7.1,'11111222,11111222,11111222' 
TABS,ioos:station:wmo:42046:1,2011-07-01T03:30:00Z,27.8903,-94.0367,4.0,5.81737054,124.9197413,6.73,'11111222,11111222,11111222' 
TABS,ioos:station:wmo:42046:1,2011-07-01T04:00:00Z,27.8903,-94.0367,4.0,5.884632529,128.5841096,6.75,'11111222,11111222,11111222' 
TABS,ioos:station:wmo:42046:1,2011-07-01T04:30:00Z,27.8903,-94.0367,4.0,6.324634377,133.2064076,7.15,'11111222,11111222,11111222' 
TABS,ioos:station:wmo:42046:1,2011-07-01T05:00:00Z,27.8903,-94.0367,4.0,6.405161981,142.039015,7.67,'11111222,11111222,11111222' 
TABS,ioos:station:wmo:42046:1,2011-07-01T05:30:00Z,27.8903,-94.0367,4.0,6.620913834,139.840171,7.7,'11111222,11111222,11111222' 
TABS,ioos:station:wmo:42046:1,2011-07-01T06:00:00Z,27.8903,-94.0367,4.0,6.228322407,140.9956885,7.29,'11111222,11111222,11111222' 
TABS,ioos:station:wmo:42046:1,2011-07-01T06:30:00Z,27.8903,-94.0367,4.0,6.218054358,143.3699742,7.07,'11111222,11111222,11111222' 
TABS,ioos:station:wmo:42046:1,2011-07-01T07:00:00Z,27.8903,-94.0367,4.0,5.965852831,146.0704924,6.85,'11111222,11111222,11111222' 
TABS,ioos:station:wmo:42046:1,2011-07-01T07:30:00Z,27.8903,-94.0367,4.0,6.105161751,147.1692016,7.3,'11111222,11111222,11111222' 
TABS,ioos:station:wmo:42046:1,2011-07-01T08:00:00Z,27.8903,-94.0367,4.0,5.256006088,143.0431911,5.98,'11111222,11111222,11111222' 
TABS,ioos:station:wmo:42046:1,2011-07-01T08:30:00Z,27.8903,-94.0367,4.0,5.56072837,138.4266653,6.43,'11111222,11111222,11111222' 
TABS,ioos:station:wmo:42046:1,2011-07-01T09:00:00Z,27.8903,-94.0367,4.0,5.212456235,133.8343509,6.03,'11111222,11111222,11111222' 
TABS,ioos:station:wmo:42046:1,2011-07-01T09:30:00Z,27.8903,-94.0367,4.0,4.801603899,124.6502123,5.68,'11111222,11111222,11111222' 
TABS,ioos:station:wmo:42046:1,2011-07-01T10:00:00Z,27.8903,-94.0367,4.0,4.740717245,120.1349929,5.58,'11111222,11111222,11111222' 
TABS,ioos:station:wmo:42046:1,2011-07-01T10:30:00Z,27.8903,-94.0367,4.0,4.280292046,117.403531,5.03,'11111222,11111222,11111222' 
TABS,ioos:station:wmo:42046:1,2011-07-01T11:00:00Z,27.8903,-94.0367,4.0,4.678215472,115.8533593,5.51,'11111222,11111222,11111222' 
TABS,ioos:station:wmo:42046:1,2011-07-01T11:30:00Z,27.8903,-94.0367,4.0,4.59918471,114.9495217,5.31,'11111222,11111222,11111222' 
TABS,ioos:station:wmo:42046:1,2011-07-01T12:00:00Z,27.8903,-94.0367,4.0,4.620497809,115.5116883,5.75,'11111222,11111222,11111222' 
TABS,ioos:station:wmo:42046:1,2011-07-01T12:30:00Z,27.8903,-94.0367,4.0,4.755680814,111.9807578,5.74,'11111222,11111222,11111222' 
TABS,ioos:station:wmo:42046:1,2011-07-01T13:00:00Z,27.8903,-94.0367,4.0,5.18339657,121.9119942,6.05,'11111222,11111222,11111222' 
TABS,ioos:station:wmo:42046:1,2011-07-01T13:30:00Z,27.8903,-94.0367,4.0,5.143393821,115.8181178,6.18,'11111222,11111222,11111222' 
TABS,ioos:station:wmo:42046:1,2011-07-01T14:00:00Z,27.8903,-94.0367,4.0,4.300744122,111.5543904,5.3,'11111222,11111222,11111222' 
TABS,ioos:station:wmo:42046:1,2011-07-01T14:30:00Z,27.8903,-94.0367,4.0,4.803176033,116.19198,5.75,'11111222,11111222,11111222' 
TABS,ioos:station:wmo:42046:1,2011-07-01T15:00:00Z,27.8903,-94.0367,4.0,4.290372944,119.6127191,5.15,'11111222,11111222,11111222' 
TABS,ioos:station:wmo:42046:1,2011-07-01T15:30:00Z,27.8903,-94.0367,4.0,4.159867786,109.9599458,4.73,'11111222,11111222,11111222' 
TABS,ioos:station:wmo:42046:1,2011-07-01T16:00:00Z,27.8903,-94.0367,4.0,3.718494319,101.793823,4.58,'11111222,11111222,11111222' 
TABS,ioos:station:wmo:42046:1,2011-07-01T16:30:00Z,27.8903,-94.0367,4.0,3.90919429,107.4156089,4.55,'11111222,11111222,11111222' 
TABS,ioos:station:wmo:42046:1,2011-07-01T17:00:00Z,27.8903,-94.0367,4.0,3.563888326,108.4861657,4.44,'11111222,11111222,11111222' 
TABS,ioos:station:wmo:42046:1,2011-07-01T17:30:00Z,27.8903,-94.0367,4.0,4.155237659,97.4674801,5.12,'11111222,11111222,11111222' 
TABS,ioos:station:wmo:42046:1,2011-07-01T18:00:00Z,27.8903,-94.0367,4.0,4.521338297,97.75415417,5.24,'11111222,11111222,11111222' 
TABS,ioos:station:wmo:42046:1,2011-07-01T18:30:00Z,27.8903,-94.0367,4.0,4.788527958,98.16434693,5.83,'11111222,11111222,11111222' 
TABS,ioos:station:wmo:42046:1,2011-07-01T19:00:00Z,27.8903,-94.0367,4.0,4.883318544,92.11282725,5.76,'11111222,11111222,11111222' 
TABS,ioos:station:wmo:42046:1,2011-07-01T19:30:00Z,27.8903,-94.0367,4.0,4.958800258,106.2790745,6.33,'11111222,11111222,11111222' 
TABS,ioos:station:wmo:42046:1,2011-07-01T20:00:00Z,27.8903,-94.0367,4.0,6.794181334,151.1340653,10.42,'11111222,11111222,11111222' 
TABS,ioos:station:wmo:42046:1,2011-07-01T20:30:00Z,27.8903,-94.0367,4.0,6.921170421,158.7368956,9.22,'11111222,11111222,11111222' 
TABS,ioos:station:wmo:42046:1,2011-07-01T21:00:00Z,27.8903,-94.0367,4.0,2.199113458,134.816086,3.36,'11111222,11111222,11111222' 
TABS,ioos:station:wmo:42046:1,2011-07-01T21:30:00Z,27.8903,-94.0367,4.0,0.926498786,166.2639743,1.75,'11111222,11111222,11111222' 
TABS,ioos:station:wmo:42046:1,2011-07-01T22:00:00Z,27.8903,-94.0367,4.0,2.408526521,104.6713006,3.41,'11111222,11111222,11111222' 
TABS,ioos:station:wmo:42046:1,2011-07-01T22:30:00Z,27.8903,-94.0367,4.0,3.314935897,109.7472113,4.04,'11111222,11111222,11111222' 
TABS,ioos:station:wmo:42046:1,2011-07-01T23:00:00Z,27.8903,-94.0367,4.0,3.082239446,115.1520161,4.26,'11111222,11111222,11111222' 
TABS,ioos:station:wmo:42046:1,2011-07-01T23:30:00Z,27.8903,-94.0367,4.0,3.6261412,126.3646027,4.57,'11111222,11111222,11111222' 
TABS,ioos:station:wmo:42046:1,2011-07-02T00:00:00Z,27.8903,-94.0367,4.0,6.60609567,203.4606809,8.43,'11111222,11111222,11111222' 
TABS,ioos:station:wmo:42046:1,2011-07-02T00:30:00Z,27.8903,-94.0367,4.0,2.015365972,134.3972259,2.79,'11111222,11111222,11111222' 
TABS,ioos:station:wmo:42046:1,2011-07-02T01:00:00Z,27.8903,-94.0367,4.0,1.6858529,120.672675,2.42,'11111222,11111222,11111222' 
TABS,ioos:station:wmo:42046:1,2011-07-02T01:30:00Z,27.8903,-94.0367,4.0,3.606688232,165.3860539,4.31,'11111222,11111222,11111222' 
TABS,ioos:station:wmo:42046:1,2011-07-02T02:00:00Z,27.8903,-94.0367,4.0,4.374197069,154.2553485,5.06,'11111222,11111222,11111222' 
TABS,ioos:station:wmo:42046:1,2011-07-02T02:30:00Z,27.8903,-94.0367,4.0,4.057647101,160.7168732,5.07,'11111222,11111222,11111222' 
TABS,ioos:station:wmo:42046:1,2011-07-02T03:00:00Z,27.8903,-94.0367,4.0,3.909283822,147.8550811,4.77,'11111222,11111222,11111222' 
TABS,ioos:station:wmo:42046:1,2011-07-02T03:30:00Z,27.8903,-94.0367,4.0,3.779219496,144.5859836,4.49,'11111222,11111222,11111222' 
TABS,ioos:station:wmo:42046:1,2011-07-02T04:00:00Z,27.8903,-94.0367,4.0,3.609058049,153.1512304,4.28,'11111222,11111222,11111222' 
TABS,ioos:station:wmo:42046:1,2011-07-02T04:30:00Z,27.8903,-94.0367,4.0,3.469178577,159.0576089,4.24,'11111222,11111222,11111222' 
TABS,ioos:station:wmo:42046:1,2011-07-02T05:00:00Z,27.8903,-94.0367,4.0,3.459841037,136.991387,4.37,'11111222,11111222,11111222' 
TABS,ioos:station:wmo:42046:1,2011-07-02T05:30:00Z,27.8903,-94.0367,4.0,3.688956492,128.1750052,4.41,'11111222,11111222,11111222' 
TABS,ioos:station:wmo:42046:1,2011-07-02T06:00:00Z,27.8903,-94.0367,4.0,3.673486083,137.5377688,4.41,'11111222,11111222,11111222' 
TABS,ioos:station:wmo:42046:1,2011-07-02T06:30:00Z,27.8903,-94.0367,4.0,3.63551922,133.6629171,4.46,'11111222,11111222,11111222' 
TABS,ioos:station:wmo:42046:1,2011-07-02T07:00:00Z,27.8903,-94.0367,4.0,3.706561749,133.4698801,4.6,'11111222,11111222,11111222' 
TABS,ioos:station:wmo:42046:1,2011-07-02T07:30:00Z,27.8903,-94.0367,4.0,4.005820765,137.4283585,4.95,'11111222,11111222,11111222' 
TABS,ioos:station:wmo:42046:1,2011-07-02T08:00:00Z,27.8903,-94.0367,4.0,4.219052026,160.6204847,4.69,'11111222,11111222,11111222' 
TABS,ioos:station:wmo:42046:1,2011-07-02T08:30:00Z,27.8903,-94.0367,4.0,4.240117923,141.3193892,5.0,'11111222,11111222,11111222' 
TABS,ioos:station:wmo:42046:1,2011-07-02T09:00:00Z,27.8903,-94.0367,4.0,4.504397851,131.760623,5.29,'11111222,11111222,11111222' 
TABS,ioos:station:wmo:42046:1,2011-07-02T09:30:00Z,27.8903,-94.0367,4.0,3.684019544,149.6766745,4.62,'11111222,11111222,11111222' 
TABS,ioos:station:wmo:42046:1,2011-07-02T10:00:00Z,27.8903,-94.0367,4.0,3.78695128,149.7111721,4.78,'11111222,11111222,11111222' 
TABS,ioos:station:wmo:42046:1,2011-07-02T10:30:00Z,27.8903,-94.0367,4.0,3.096901677,155.5869358,3.79,'11111222,11111222,11111222' 
TABS,ioos:station:wmo:42046:1,2011-07-02T11:00:00Z,27.8903,-94.0367,4.0,3.005095672,165.547816,3.64,'11111222,11111222,11111222' 
TABS,ioos:station:wmo:42046:1,2011-07-02T11:30:00Z,27.8903,-94.0367,4.0,2.328132299,160.1643318,2.93,'11111222,11111222,11111222' 
TABS,ioos:station:wmo:42046:1,2011-07-02T12:00:00Z,27.8903,-94.0367,4.0,1.648302157,133.2795049,2.6,'11111222,11111222,11111222' 
TABS,ioos:station:wmo:42046:1,2011-07-02T12:30:00Z,27.8903,-94.0367,4.0,1.391761474,107.133377,1.9,'11111222,11111222,11111222' 
TABS,ioos:station:wmo:42046:1,2011-07-02T13:00:00Z,27.8903,-94.0367,4.0,1.414213562,118.740149,1.91,'11111222,11111222,11111222' 
TABS,ioos:station:wmo:42046:1,2011-07-02T13:30:00Z,27.8903,-94.0367,4.0,1.526106156,102.4884775,2.16,'11111222,11111222,11111222' 
TABS,ioos:station:wmo:42046:1,2011-07-02T14:00:00Z,27.8903,-94.0367,4.0,0.910219754,88.74053682,1.37,'11111222,11111222,11111222' 
TABS,ioos:station:wmo:42046:1,2011-07-02T14:30:00Z,27.8903,-94.0367,4.0,2.037351222,76.37261609,2.63,'11111222,11111222,11111222' 
TABS,ioos:station:wmo:42046:1,2011-07-02T15:00:00Z,27.8903,-94.0367,4.0,1.945507646,79.03621507,2.55,'11111222,11111222,11111222' 
TABS,ioos:station:wmo:42046:1,2011-07-02T15:30:00Z,27.8903,-94.0367,4.0,1.531176019,87.75384177,2.31,'11111222,11111222,11111222' 
TABS,ioos:station:wmo:42046:1,2011-07-02T16:00:00Z,27.8903,-94.0367,4.0,1.734012687,97.2893562,2.34,'11111222,11111222,11111222' 
TABS,ioos:station:wmo:42046:1,2011-07-02T16:30:00Z,27.8903,-94.0367,4.0,1.451654229,109.3090487,1.93,'11111222,11111222,11111222' 
TABS,ioos:station:wmo:42046:1,2011-07-02T17:00:00Z,27.8903,-94.0367,4.0,1.606393476,114.650948,2.39,'11111222,11111222,11111222' 
TABS,ioos:station:wmo:42046:1,2011-07-02T17:30:00Z,27.8903,-94.0367,4.0,1.399428455,120.964105,2.02,'11111222,11111222,11111222' 
TABS,ioos:station:wmo:42046:1,2011-07-02T18:00:00Z,27.8903,-94.0367,4.0,1.732887763,93.30862672,2.45,'11111222,11111222,11111222' 
TABS,ioos:station:wmo:42046:1,2011-07-02T18:30:00Z,27.8903,-94.0367,4.0,1.659518002,102.5291993,2.39,'11111222,11111222,11111222' 
TABS,ioos:station:wmo:42046:1,2011-07-02T19:00:00Z,27.8903,-94.0367,4.0,1.236931688,104.0366316,1.89,'11111222,11111222,11111222' 
TABS,ioos:station:wmo:42046:1,2011-07-02T19:30:00Z,27.8903,-94.0367,4.0,1.868154169,105.5244956,3.02,'11111222,11111222,11111222' 
TABS,ioos:station:wmo:42046:1,2011-07-02T20:00:00Z,27.8903,-94.0367,4.0,1.31605471,106.7830258,2.2,'11111222,11111222,11111222' 
TABS,ioos:station:wmo:42046:1,2011-07-02T20:30:00Z,27.8903,-94.0367,4.0,1.641249524,120.7844955,2.5,'11111222,11111222,11111222' 
TABS,ioos:station:wmo:42046:1,2011-07-02T21:00:00Z,27.8903,-94.0367,4.0,1.740402252,106.3527662,2.42,'11111222,11111222,11111222' 
TABS,ioos:station:wmo:42046:1,2011-07-02T21:30:00Z,27.8903,-94.0367,4.0,1.850675552,125.3220783,2.6,'11111222,11111222,11111222' 
TABS,ioos:station:wmo:42046:1,2011-07-02T22:00:00Z,27.8903,-94.0367,4.0,1.256065285,139.8443047,2.07,'11111222,11111222,11111222' 
TABS,ioos:station:wmo:42046:1,2011-07-02T22:30:00Z,27.8903,-94.0367,4.0,1.928159744,122.2892128,2.97,'11111222,11111222,11111222' 
TABS,ioos:station:wmo:42046:1,2011-07-02T23:00:00Z,27.8903,-94.0367,4.0,1.655566368,140.6378454,2.38,'11111222,11111222,11111222' 
TABS,ioos:station:wmo:42046:1,2011-07-02T23:30:00Z,27.8903,-94.0367,4.0,2.191004336,130.7434412,3.01,'11111222,11111222,11111222' 
TABS,ioos:station:wmo:42046:1,2011-07-03T00:00:00Z,27.8903,-94.0367,4.0,1.916037578,143.4892397,2.54,'11111222,11111222,11111222' 
TABS,ioos:station:wmo:42046:1,2011-07-03T00:30:00Z,27.8903,-94.0367,4.0,1.812236188,177.1536002,2.47,'11111222,11111222,11111222' 
TABS,ioos:station:wmo:42046:1,2011-07-03T01:00:00Z,27.8903,-94.0367,4.0,1.610496818,159.6524088,2.26,'11111222,11111222,11111222' 
TABS,ioos:station:wmo:42046:1,2011-07-03T01:30:00Z,27.8903,-94.0367,4.0,1.780252791,179.0346449,2.23,'11111222,11111222,11111222' 
TABS,ioos:station:wmo:42046:1,2011-07-03T02:00:00Z,27.8903,-94.0367,4.0,2.230089684,180.514059,3.33,'11111222,11111222,11111222' 
TABS,ioos:station:wmo:42046:1,2011-07-03T02:30:00Z,27.8903,-94.0367,4.0,2.380252087,204.8425415,2.98,'11111222,11111222,11111222' 
TABS,ioos:station:wmo:42046:1,2011-07-03T03:00:00Z,27.8903,-94.0367,4.0,1.736231551,199.1656222,2.31,'11111222,11111222,11111222' 
TABS,ioos:station:wmo:42046:1,2011-07-03T03:30:00Z,27.8903,-94.0367,4.0,2.223263367,199.1685908,3.01,'11111222,11111222,11111222' 
TABS,ioos:station:wmo:42046:1,2011-07-03T04:00:00Z,27.8903,-94.0367,4.0,2.483102898,215.1622773,3.26,'11111222,11111222,11111222' 
TABS,ioos:station:wmo:42046:1,2011-07-03T04:30:00Z,27.8903,-94.0367,4.0,2.617728023,208.5232624,3.31,'11111222,11111222,11111222' 
TABS,ioos:station:wmo:42046:1,2011-07-03T05:00:00Z,27.8903,-94.0367,4.0,2.075090359,206.3182371,2.78,'11111222,11111222,11111222' 
TABS,ioos:station:wmo:42046:1,2011-07-03T05:30:00Z,27.8903,-94.0367,4.0,2.008780725,215.2725494,2.59,'11111222,11111222,11111222' 
TABS,ioos:station:wmo:42046:1,2011-07-03T06:00:00Z,27.8903,-94.0367,4.0,1.385784976,200.2658605,2.06,'11111222,11111222,11111222' 
TABS,ioos:station:wmo:42046:1,2011-07-03T06:30:00Z,27.8903,-94.0367,4.0,1.256423495,213.3107634,1.77,'11111222,11111222,11111222' 
TABS,ioos:station:wmo:42046:1,2011-07-03T07:00:00Z,27.8903,-94.0367,4.0,1.766465397,210.6301373,2.39,'11111222,11111222,11111222' 
TABS,ioos:station:wmo:42046:1,2011-07-03T07:30:00Z,27.8903,-94.0367,4.0,1.942498391,215.5720934,2.83,'11111222,11111222,11111222' 
TABS,ioos:station:wmo:42046:1,2011-07-03T08:00:00Z,27.8903,-94.0367,4.0,2.289737976,220.9271043,3.26,'11111222,11111222,11111222' 
TABS,ioos:station:wmo:42046:1,2011-07-03T08:30:00Z,27.8903,-94.0367,4.0,1.882817038,222.4170906,2.61,'11111222,11111222,11111222' 
TABS,ioos:station:wmo:42046:1,2011-07-03T09:00:00Z,27.8903,-94.0367,4.0,1.987158776,229.8991862,2.75,'11111222,11111222,11111222' 
TABS,ioos:station:wmo:42046:1,2011-07-03T09:30:00Z,27.8903,-94.0367,4.0,1.751028269,271.9636529,2.32,'11111222,11111222,11111222' 
TABS,ioos:station:wmo:42046:1,2011-07-03T10:00:00Z,27.8903,-94.0367,4.0,1.783171332,257.3666676,2.47,'11111222,11111222,11111222' 
TABS,ioos:station:wmo:42046:1,2011-07-03T10:30:00Z,27.8903,-94.0367,4.0,1.899736824,248.7026958,2.64,'11111222,11111222,11111222' 
TABS,ioos:station:wmo:42046:1,2011-07-03T11:00:00Z,27.8903,-94.0367,4.0,2.063492186,266.6661571,2.69,'11111222,11111222,11111222' 
TABS,ioos:station:wmo:42046:1,2011-07-03T11:30:00Z,27.8903,-94.0367,4.0,1.203536456,278.6013647,1.9,'11111222,11111222,11111222' 
TABS,ioos:station:wmo:42046:1,2011-07-03T12:00:00Z,27.8903,-94.0367,4.0,2.096020038,320.6143087,3.16,'11111222,11111222,11111222' 
TABS,ioos:station:wmo:42046:1,2011-07-03T12:30:00Z,27.8903,-94.0367,4.0,2.531600284,314.3597466,3.47,'11111222,11111222,11111222' 
TABS,ioos:station:wmo:42046:1,2011-07-03T13:00:00Z,27.8903,-94.0367,4.0,1.717731062,292.2349389,2.76,'11111222,11111222,11111222' 
TABS,ioos:station:wmo:42046:1,2011-07-03T13:30:00Z,27.8903,-94.0367,4.0,1.072054103,342.0719117,2.1,'11111222,11111222,11111222' 
TABS,ioos:station:wmo:42046:1,2011-07-03T14:00:00Z,27.8903,-94.0367,4.0,1.822800044,305.1721937,2.79,'11111222,11111222,11111222' 
TABS,ioos:station:wmo:42046:1,2011-07-03T14:30:00Z,27.8903,-94.0367,4.0,2.001424493,316.01208,2.61,'11111222,11111222,11111222' 
TABS,ioos:station:wmo:42046:1,2011-07-03T15:00:00Z,27.8903,-94.0367,4.0,2.031944881,331.1643561,2.97,'11111222,11111222,11111222' 
TABS,ioos:station:wmo:42046:1,2011-07-03T15:30:00Z,27.8903,-94.0367,4.0,2.670074905,359.5706167,3.61,'11111222,11144222,11111222' 
TABS,ioos:station:wmo:42046:1,2011-07-03T16:00:00Z,27.8903,-94.0367,4.0,2.267972663,4.805379547,3.48,'11111222,11111222,11111222' 
TABS,ioos:station:wmo:42046:1,2011-07-03T16:30:00Z,27.8903,-94.0367,4.0,2.879201278,4.581634691,3.57,'11111222,11111222,11111222' 
TABS,ioos:station:wmo:42046:1,2011-07-03T17:00:00Z,27.8903,-94.0367,4.0,3.282986445,2.443851884,4.09,'11111222,11111222,11111222' 
TABS,ioos:station:wmo:42046:1,2011-07-03T17:30:00Z,27.8903,-94.0367,4.0,2.847384765,14.23121458,3.47,'11111222,11111222,11111222' 
TABS,ioos:station:wmo:42046:1,2011-07-03T18:00:00Z,27.8903,-94.0367,4.0,2.627108677,12.97802911,3.52,'11111222,11111222,11111222' 
TABS,ioos:station:wmo:42046:1,2011-07-03T18:30:00Z,27.8903,-94.0367,4.0,2.546566316,9.721009434,3.5,'11111222,11111222,11111222' 
TABS,ioos:station:wmo:42046:1,2011-07-03T19:00:00Z,27.8903,-94.0367,4.0,1.890290983,29.81979237,2.83,'11111222,11111222,11111222' 
TABS,ioos:station:wmo:42046:1,2011-07-03T19:30:00Z,27.8903,-94.0367,4.0,2.499279896,50.19410107,3.35,'11111222,11111222,11111222' 
TABS,ioos:station:wmo:42046:1,2011-07-03T20:00:00Z,27.8903,-94.0367,4.0,1.808120571,49.26089759,2.61,'11111222,11111222,11111222' 
TABS,ioos:station:wmo:42046:1,2011-07-03T20:30:00Z,27.8903,-94.0367,4.0,1.794017837,53.38526494,2.48,'11111222,11111222,11111222' 
TABS,ioos:station:wmo:42046:1,2011-07-03T21:00:00Z,27.8903,-94.0367,4.0,1.622898641,55.0365633,2.81,'11111222,11111222,11111222' 
TABS,ioos:station:wmo:42046:1,2011-07-03T21:30:00Z,27.8903,-94.0367,4.0,1.706604817,48.08732838,2.63,'11111222,11111222,11111222' 
TABS,ioos:station:wmo:42046:1,2011-07-03T22:00:00Z,27.8903,-94.0367,4.0,2.577692767,67.41396317,3.59,'11111222,11111222,11111222' 
TABS,ioos:station:wmo:42046:1,2011-07-03T22:30:00Z,27.8903,-94.0367,4.0,1.948794499,69.89092623,2.69,'11111222,11111222,11111222' 
TABS,ioos:station:wmo:42046:1,2011-07-03T23:00:00Z,27.8903,-94.0367,4.0,2.113764414,110.4929678,3.05,'11111222,11111222,11111222' 
TABS,ioos:station:wmo:42046:1,2011-07-03T23:30:00Z,27.8903,-94.0367,4.0,1.72800463,127.0028609,2.47,'11111222,11111222,11111222' 
TABS,ioos:station:wmo:42046:1,2011-07-04T00:00:00Z,27.8903,-94.0367,4.0,2.12708721,128.702206,3.0,'11111222,11111222,11111222' 
TABS,ioos:station:wmo:42046:1,2011-07-04T00:30:00Z,27.8903,-94.0367,4.0,1.860026882,136.0894553,2.79,'11111222,11111222,11111222' 
TABS,ioos:station:wmo:42046:1,2011-07-04T01:00:00Z,27.8903,-94.0367,4.0,2.56750852,141.1662363,3.39,'11111222,11111222,11111222' 
TABS,ioos:station:wmo:42046:1,2011-07-04T01:30:00Z,27.8903,-94.0367,4.0,2.414228655,169.0161088,3.33,'11111222,11111222,11111222' 
TABS,ioos:station:wmo:42046:1,2011-07-04T02:00:00Z,27.8903,-94.0367,4.0,3.495096565,147.2650607,4.45,'11111222,11111222,11111222' 
TABS,ioos:station:wmo:42046:1,2011-07-04T02:30:00Z,27.8903,-94.0367,4.0,3.550507006,158.3486833,4.88,'11111222,11111222,11111222' 
TABS,ioos:station:wmo:42046:1,2011-07-04T03:00:00Z,27.8903,-94.0367,4.0,3.863780532,171.3668108,4.95,'11111222,11111222,11111222' 
TABS,ioos:station:wmo:42046:1,2011-07-04T03:30:00Z,27.8903,-94.0367,4.0,3.916580141,174.7263268,4.72,'11111222,11111222,11111222' 
TABS,ioos:station:wmo:42046:1,2011-07-04T04:00:00Z,27.8903,-94.0367,4.0,3.651533924,175.4450689,4.61,'11111222,11111222,11111222' 
TABS,ioos:station:wmo:42046:1,2011-07-04T04:30:00Z,27.8903,-94.0367,4.0,4.166461328,172.4146722,5.08,'11111222,11111222,11111222' 
TABS,ioos:station:wmo:42046:1,2011-07-04T05:00:00Z,27.8903,-94.0367,4.0,4.240011792,180.1353414,5.02,'11111222,11111222,11111222' 
TABS,ioos:station:wmo:42046:1,2011-07-04T05:30:00Z,27.8903,-94.0367,4.0,2.868030683,171.9831361,3.78,'11111222,11111222,11111222' 
TABS,ioos:station:wmo:42046:1,2011-07-04T06:00:00Z,27.8903,-94.0367,4.0,2.926055365,168.7671082,4.24,'11111222,11111222,11111222' 
TABS,ioos:station:wmo:42046:1,2011-07-04T06:30:00Z,27.8903,-94.0367,4.0,2.321809639,162.9700935,3.62,'11111222,11111222,11111222' 
TABS,ioos:station:wmo:42046:1,2011-07-04T07:00:00Z,27.8903,-94.0367,4.0,2.760525312,167.0211808,3.66,'11111222,11111222,11111222' 
TABS,ioos:station:wmo:42046:1,2011-07-04T07:30:00Z,27.8903,-94.0367,4.0,2.542754412,160.7102093,3.41,'11111222,11111222,11111222' 
TABS,ioos:station:wmo:42046:1,2011-07-04T08:00:00Z,27.8903,-94.0367,4.0,3.244934514,149.642166,3.88,'11111222,11111222,11111222' 
TABS,ioos:station:wmo:42046:1,2011-07-04T08:30:00Z,27.8903,-94.0367,4.0,2.486764967,154.2595623,3.08,'11111222,11111222,11111222' 
TABS,ioos:station:wmo:42046:1,2011-07-04T09:00:00Z,27.8903,-94.0367,4.0,2.525173261,166.9546039,3.06,'11111222,11111222,11111222' 
TABS,ioos:station:wmo:42046:1,2011-07-04T09:30:00Z,27.8903,-94.0367,4.0,2.130093895,180.5381819,2.83,'11111222,11111222,11111222' 
TABS,ioos:station:wmo:42046:1,2011-07-04T10:00:00Z,27.8903,-94.0367,4.0,2.230807029,178.4589954,3.1,'11111222,11111222,11111222' 
TABS,ioos:station:wmo:42046:1,2011-07-04T10:30:00Z,27.8903,-94.0367,4.0,2.658364159,189.7459746,3.46,'11111222,11111222,11111222' 
TABS,ioos:station:wmo:42046:1,2011-07-04T11:00:00Z,27.8903,-94.0367,4.0,2.122498528,195.018536,2.82,'11111222,11111222,11111222' 
TABS,ioos:station:wmo:42046:1,2011-07-04T11:30:00Z,27.8903,-94.0367,4.0,1.56588633,204.9286263,2.33,'11111222,11111222,11111222' 
TABS,ioos:station:wmo:42046:1,2011-07-04T12:00:00Z,27.8903,-94.0367,4.0,1.326122166,217.6477431,1.83,'11111222,11111222,11111222' 
TABS,ioos:station:wmo:42046:1,2011-07-04T12:30:00Z,27.8903,-94.0367,4.0,1.053802638,189.2837416,1.61,'11111222,11111222,11111222' 
TABS,ioos:station:wmo:42046:1,2011-07-04T13:00:00Z,27.8903,-94.0367,4.0,1.110720487,200.5562076,1.66,'11111222,11111222,11111222' 
TABS,ioos:station:wmo:42046:1,2011-07-04T13:30:00Z,27.8903,-94.0367,4.0,1.240201597,237.84778,2.35,'11111222,11111222,11111222' 
TABS,ioos:station:wmo:42046:1,2011-07-04T14:00:00Z,27.8903,-94.0367,4.0,2.107605276,260.7164689,2.81,'11111222,11111222,11111222' 
TABS,ioos:station:wmo:42046:1,2011-07-04T14:30:00Z,27.8903,-94.0367,4.0,2.089258242,285.8323496,3.18,'11111222,11111222,11111222' 
TABS,ioos:station:wmo:42046:1,2011-07-04T15:00:00Z,27.8903,-94.0367,4.0,1.861316738,304.7145408,2.55,'11111222,11111222,11111222' 
TABS,ioos:station:wmo:42046:1,2011-07-04T15:30:00Z,27.8903,-94.0367,4.0,1.785385113,282.9464792,2.72,'11111222,11111222,11111222' 
TABS,ioos:station:wmo:42046:1,2011-07-04T16:00:00Z,27.8903,-94.0367,4.0,1.540194793,328.2705076,2.12,'11111222,11111222,11111222' 
TABS,ioos:station:wmo:42046:1,2011-07-04T16:30:00Z,27.8903,-94.0367,4.0,1.351480669,10.22877391,2.61,'11111222,11111222,11111222' 
TABS,ioos:station:wmo:42046:1,2011-07-04T17:00:00Z,27.8903,-94.0367,4.0,1.630828011,23.10606237,2.59,'11111222,11111222,11111222' 
TABS,ioos:station:wmo:42046:1,2011-07-04T17:30:00Z,27.8903,-94.0367,4.0,2.224454989,10.09727031,3.09,'11111222,11111222,11111222' 
TABS,ioos:station:wmo:42046:1,2011-07-04T18:00:00Z,27.8903,-94.0367,4.0,2.062862089,6.401310812,3.04,'11111222,11111222,11111222' 
TABS,ioos:station:wmo:42046:1,2011-07-04T18:30:00Z,27.8903,-94.0367,4.0,2.808558349,17.40245298,3.65,'11111222,11111222,11111222' 